Home > Weather > Bodrum > Past weeks

Flag for Turkey Weather for the Past 2 Weeks in Bodrum, Turkey

Now
47 °F

Clear.


Feels Like: 47 °F
Forecast: 45 / 57 °F
Wind: 2 mph from Northeast

Location: Bodrum

Current Time: Feb 8, 2016 at 11:30:55 PM

Latest Report: Feb 8, 2016 at 8:00 PM


Visibility: 13 mi

Pressure: 30.25 "Hg

Humidity: 63%

Dew point: 35 °F

Location of BodrumLocation

Historic Weather in Bodrum — Graph

°F

Bodrum Temperature Yesterday

Maximum temperature yesterday: 54 °F (at 3:00 PM)
Minimum temperature yesterday: 40 °F (at 8:00 AM)
Average temperature yesterday: 48 °F

High & Low Weather Summary for the Past Weeks

 TemperatureHumidityPressure
High69 °F (Feb 3, 2:00 PM)94% (Feb 5, 8:00 PM)30.45 "Hg (Feb 5, 8:00 PM)
Low32 °F (Jan 26, 5:00 AM)30% (Jan 26, 1:00 PM)29.66 "Hg (Feb 5, 4:00 PM)
Average53 °F58%30.22 "Hg
* Reported Jan 24 8:00 PM — Feb 8 8:00 PM, Bodrum, Weather by CustomWeather, © 2016

Note: Actual official high and low records may vary slightly from our data, if they occured in-between our weather recording intervals... More about our weather records

Advertising

Bodrum Weather History for the Previous 24 Hours

 ConditionsComfort  
Time TempWeatherWind HumidityBarometerVisibility
8:00 PM
Mon, Feb 8
47 °FClear.2 mph63%30.25 "Hg12 mi
7:00 PM47 °FClear.2 mph61%30.24 "Hg12 mi
6:00 PM51 °FClear.1 mph53%30.23 "Hg12 mi
5:00 PM56 °FSunny.3 mph48%30.22 "Hg12 mi
4:00 PM57 °FSunny.3 mph47%30.22 "Hg12 mi
3:00 PM58 °FSunny.5 mph38%30.22 "Hg12 mi
2:00 PM57 °FSunny.3 mph42%30.22 "Hg12 mi
1:00 PM56 °FSunny.3 mph43%30.23 "Hg12 mi
12:00 PM56 °FSunny.3 mph38%30.24 "Hg12 mi
11:00 AM55 °FSunny.2 mph36%30.25 "Hg12 mi
10:00 AM52 °FSunny.2 mph46%30.24 "Hg12 mi
9:00 AM47 °FSunny.2 mph50%30.23 "Hg12 mi
8:00 AM41 °FSunny.2 mph63%30.22 "Hg12 mi
5:00 AM42 °FClear.5 mph54%30.19 "Hg12 mi
2:00 AM44 °FClear.7 mph51%30.19 "Hg12 mi
11:00 PM
Sun, Feb 7
44 °FClear.2 mph57%30.21 "Hg12 mi
Weather by CustomWeather, © 2016

See weather overviewHow to use our weather pages